Вернуться в каталог

ONEWEB-0651

АктивенСвязьPO
NORAD 56080·PAYLOAD·🇬🇧 United Kingdom

Запущен Mar 26, 2023 с Satish Dhawan Space Centre

Loading…

Ближайшие Пролёты (ближайшие 24 часа)

TLE

СвежийSource: CelesTrak SupGP

Эпоха: Sep 15, 2026, 00:38 UTC

1 56080C 23043AL  26258.02687917 -.00002109  00000+0 -56094-2 0  2581
2 56080  87.8982 241.3038 0002108  93.4022 298.6002 13.15553053    14

Отслеживайте ONEWEB-0651 в реальном времени с AllMySat

Download on the App Store